1390003231848,2.22511
1390003291848,2.23292
1390003351848,2.21356
1390003411848,2.22809
1390003471848,2.22038
1390003531848,2.21287
1390003591848,2.22928
1390003651848,2.23718
1390003711848,2.24250
1390003771848,2.21437
1390003831848,2.22655
1390003891848,2.22066
1390003951848,2.24046
1390004011848,2.23072
1390004071848,2.23485
1390004131848,2.23628
1390004191848,2.21885
1390004251848,2.22481
1390004311848,2.22035
1390004371848,2.22695
1390004431848,2.24550
1390004491848,2.21656
1390004551848,2.20809
1390004611848,2.21567
1390004671848,2.22853
1390004731848,2.22624
1390004791848,2.24094
1390004851848,2.20507
1390004911848,2.20046
1390004971848,2.21835
1390005031848,2.21360
1390005091848,2.18207
1390005151848,2.18093
1390005211848,2.23624
1390005271848,2.20967
1390005331848,2.20426
1390005391848,2.20415
1390005451848,2.21414
1390005511848,2.19218
1390005571848,2.18937
1390005631848,2.18669
1390005691848,2.25690
1390005751848,2.22599
1390005811848,2.20918
1390005871848,2.22401
1390005931848,2.23278
1390005991848,2.19417
1390006051848,2.22018
1390006111848,2.20784
1390006171848,2.21015
1390006231848,2.24943
1390006291848,2.19595
1390006351848,2.23716
1390006411848,2.18660
1390006471848,2.21336
1390006531848,2.21374
1390006591848,2.20679
1390006651848,2.19657
1390006711848,2.21792
1390006771848,2.20679
1390006831858,2.23106
1390006891858,2.24171
1390006951858,2.22787
1390007011858,2.22406
1390007071858,2.22745
1390007131858,2.22318
1390007191858,2.22495
1390007251858,2.21267
1390007311858,2.19901
1390007371858,2.20453
1390007431858,2.18444
1390007491858,2.21381
1390007551858,2.24357
1390007611858,2.22522
1390007671858,2.23325
1390007731858,2.22421
1390007791858,2.22226
1390007851858,2.23054
1390007911858,2.19422
1390007971858,2.22493
1390008031858,2.25810
1390008091858,2.22884
1390008151858,2.18239
1390008211858,2.22008
1390008271858,2.21073
1390008331858,2.22900
1390008391858,2.22663
1390008451858,2.20710
1390008511858,2.21716
1390008571858,2.20683
1390008631858,2.21220
1390008691858,2.22144
1390008751858,2.19515
1390008811858,2.22645
1390008871858,2.20112
1390008931858,2.20658
1390008991858,2.18507
1390009051858,2.22370
1390009111858,2.22615
1390009171858,2.20677
1390009231858,2.25534
1390009291858,2.21418
1390009351858,2.24798
1390009411858,2.20014
1390009471858,2.24058
1390009531858,2.21572
1390009591858,2.20211
1390009651858,2.32229
1390009711858,2.20145
1390009771858,2.21519
1390009831858,2.19853
1390009891858,2.21876
1390009951858,2.20308
1390010011858,2.21927
1390010071858,2.21629
1390010131858,2.21069
1390010191858,2.18924
1390010251858,2.21066
1390010311858,2.22372
1390010371858,2.19495
1390010431868,2.21573
1390010491868,2.24076
1390010551868,2.21862
1390010611868,2.19998
1390010671868,2.19072
1390010731868,2.21162
1390010791868,2.23485
1390010851868,2.19205
1390010911868,2.20239
1390010971868,2.20305
1390011031868,2.21759
1390011091868,2.23451
1390011151868,2.20320
1390011211868,2.17671
1390011271868,2.21082
1390011331868,2.18544
1390011391868,2.19420
1390011451868,2.22790
1390011511868,2.22275
1390011571868,2.20061
1390011631868,2.20189
1390011691868,2.20752
1390011751868,2.20225
1390011811868,2.21217
1390011871868,2.19402
1390011931868,2.19446
1390011991868,2.22018
1390012051868,2.20666
1390012111868,2.22239
1390012171868,2.22734
1390012231868,2.20706
1390012291868,2.21217
1390012351868,2.19979
1390012411868,2.19369
1390012471868,2.21175
1390012531868,2.18621
1390012591868,2.19869
1390012651868,2.18779
1390012711868,2.19608
1390012771868,2.18672
1390012831868,2.20224
1390012891868,2.20355
1390012951868,2.20000
1390013011868,2.19976
1390013071868,2.20437
1390013131868,2.19570
1390013191868,2.20253
1390013251868,2.19789
1390013311868,2.18872
1390013371868,2.21141
1390013431868,2.19656
1390013491868,2.21285
1390013551868,2.21605
1390013611868,2.21338
1390013671868,2.20986
1390013731868,2.19665
1390013791868,2.20025
1390013851868,2.19639
1390013911868,2.21910
1390013971868,2.20719
1390014031878,2.20602
1390014091878,2.21489
1390014151878,2.18317
1390014211878,2.20774
1390014271878,2.19216
1390014331878,2.20395
1390014391878,2.21653
1390014451878,2.20231
1390014511878,2.17984
1390014571878,2.19527
1390014631878,2.18561
1390014691878,2.21212
1390014751878,2.22370
1390014811878,2.20674
1390014871878,2.18906
1390014931878,2.17719
1390014991878,2.18177
1390015051878,2.20421
1390015111878,2.21713
1390015171878,2.19439
1390015231878,2.18523
1390015291878,2.22274
1390015351878,2.21309
1390015411878,2.21792
1390015471878,2.19472
1390015531878,2.19488
1390015591878,2.21624
1390015651878,2.19724
1390015711878,2.20855
1390015771878,2.21245
1390015831878,2.21477
1390015891878,2.20664
1390015951878,2.20691
1390016011878,2.22187
1390016071878,2.20912
1390016131878,2.19677
1390016191878,2.19447
1390016251878,2.21634
1390016311878,2.22559
1390016371878,2.24961
1390016431878,2.19268
1390016491878,2.25909
1390016551878,2.23696
1390016611878,2.22830
1390016671878,2.23032
1390016731878,2.21399
1390016791878,2.22765
1390016851878,2.22101
1390016911878,2.23190
1390016971878,2.23233
1390017031878,2.19121
1390017091878,2.21999
1390017151878,2.23616
1390017211878,2.21281
1390017271878,2.23361
1390017331878,2.21737
1390017391878,2.24215
1390017451878,2.20886
1390017511878,2.22865
1390017571878,2.19691
1390017631889,2.21286
1390017691889,2.19001
1390017751889,2.21867
1390017811889,2.20505
1390017871889,2.23284
1390017931889,2.20129
1390017991889,2.21266
1390018051889,2.20712
1390018111889,2.19670
1390018171889,2.23035
1390018231889,2.20808
1390018291889,2.20160
1390018351889,2.22444
1390018411889,2.18947
1390018471889,2.20314
1390018531889,2.19475
1390018591889,2.21400
1390018651889,2.21400
1390018711889,2.21970
1390018771889,2.22668
1390018831889,2.21595
1390018891889,2.23157
1390018951889,2.23194
1390019011889,2.21320
1390019071889,2.21414
1390019131889,2.19681
1390019191889,2.22906
1390019251889,2.20817
1390019311889,2.22777
1390019371889,2.31629
1390019431889,2.19526
1390019491889,2.22549
1390019551889,2.20409
1390019611889,2.21284
1390019671889,2.17366
1390019731889,2.20715
1390019791889,2.19579
1390019851889,2.20508
1390019911889,2.20454
1390019971889,2.23769
1390020031889,2.21068
1390020091889,2.18906
1390020151889,2.21883
1390020211889,2.21194
1390020271889,2.19296
1390020331889,2.22730
1390020391889,2.21328
1390020451889,2.18857
1390020511889,2.21816
1390020571889,2.21091
1390020631889,2.18435
1390020691889,2.21706
1390020751889,2.20320
1390020811889,2.21186
1390020871889,2.19429
1390020931889,2.22760
1390020991889,2.18360
1390021051889,2.23779
1390021111889,2.22219
1390021171889,2.22394
1390032031932,2.25698
1390032091932,2.23382
1390032151932,2.25695
1390032211932,2.22625
1390032271932,2.26424
1390032331932,2.27051
1390032391932,2.28966
1390032451932,2.26755
1390032511932,2.25286
1390032571932,2.26200
1390032631932,2.24071
1390032691932,2.26715
1390032751932,2.24895
1390032811932,2.26069
1390032871932,2.23235
1390032931932,2.25745
1390032991932,2.23207
1390033051932,2.24190
1390033111932,2.26202
1390033171932,2.24497
1390033231932,2.25239
1390033291932,2.27731
1390033351932,2.23527
1390033411932,2.23700
1390033471932,2.22592
1390033531932,2.24641
1390033591932,2.22421
1390033651932,2.25028
1390033711932,2.24631
1390033771932,2.23967
1390033831932,2.21697
1390033891932,2.25310
1390033951932,2.28027
1390034011932,2.22899
1390034071932,2.22717
1390034131932,2.25347
1390034191932,2.23502
1390034251932,2.25053
1390034311932,2.23104
1390034371932,2.26517
1390034431932,2.21827
1390034491932,2.27504
1390034551932,2.24874
1390034611932,2.23801
1390034671932,2.23721
1390034731932,2.25754
1390034791932,2.22574
1390034851932,2.25218
1390034911932,2.25903
1390034971932,2.21785
1390035031932,2.25979
1390035091932,2.27184
1390035151932,2.26705
1390035211932,2.26423
1390035271932,2.23275
1390035331932,2.26819
1390035391932,2.24013
1390035451932,2.21990
1390035511932,2.22384
1390035571932,2.25359
1390035631943,2.23285
1390035691943,2.21964
1390035751943,2.21958
1390035811943,2.22496
1390035871943,2.23694
1390035931943,2.25170
1390035991943,2.24844
1390036051943,2.23954
1390036111943,2.25992
1390036171943,2.24418
1390036231943,2.25309
1390036291943,2.24061
1390036351943,2.25317
1390036411943,2.24212
1390036471943,2.23449
1390036531943,2.20979
1390036591943,2.22908
1390036651943,2.20916
1390036711943,2.22640
1390036771943,2.25609
1390036831943,2.28248
1390036891943,2.20170
1390036951943,2.27025
1390037011943,2.24060
1390037071943,2.22317
1390037131943,2.20552
1390037191943,2.24311
1390037251943,2.24596
1390037311943,2.25645
1390037371943,2.25676
1390037431943,2.23655
1390037491943,2.21244
1390037551943,2.23378
1390037611943,2.19593
1390037671943,2.24045
1390037731943,2.21593
1390037791943,2.25023
1390037851943,2.25316
1390037911943,2.24091
1390037971943,2.25790
1390038031943,2.24382
1390038091943,2.24569
1390038151943,2.29388
1390038211943,2.23434
1390038271943,2.22565
1390038331943,2.23691
1390038391943,2.23512
1390038451943,2.24510
1390038511943,2.24344
1390038571943,2.23043
1390038631943,2.21846
1390038691943,2.21194
1390038751943,2.24673
1390038811943,2.24887
1390038871943,2.23368
1390038931943,2.24285
1390038991943,2.21861
1390039051943,2.23699
1390039111943,2.24743
1390039171943,2.22829
1390039231954,2.22895
1390039291954,2.25710
1390039351954,2.21348
1390039411954,2.28206
1390039471954,2.22629
1390039531954,2.23204
1390039591954,2.23694
1390039651954,2.24591
1390039711954,2.24081
1390039771954,2.23023
1390039831954,2.23236
1390039891954,2.20230
1390039951954,2.23517
1390040011954,2.20193
1390040071954,2.20494
1390040131954,2.21404
1390040191954,2.24012
1390040251954,2.21246
1390040311954,2.23186
1390040371954,2.22592
1390040431954,2.23689
1390040491954,2.21187
1390040551954,2.23814
1390040611954,2.23689
1390040671954,2.22941
1390040731954,2.21551
1390040791954,2.24646
1390040851954,2.20706
1390040911954,2.23958
1390040971954,2.21105
1390041031954,2.24784
1390041091954,2.20841
1390041151954,2.23467
1390041211954,2.24099
1390041271954,2.20402
1390041331954,2.24146
1390041391954,2.19911
1390041451954,2.22731
1390041511954,2.38434
1390041571954,2.24810
1390041631954,2.23156
1390041691954,2.25387
1390041751954,2.24569
1390041811954,2.24606
1390041871954,2.27012
1390041931954,2.24721
1390041991954,2.23280
1390042051954,2.18016
1390042111954,2.23435
1390042171954,2.22618
1390042231954,2.21212
1390042291954,2.23273
1390042351954,2.24081
1390042411954,2.23399
1390042471954,2.21989
1390042531954,2.22876
1390042591954,2.24210
1390042651954,2.21201
1390042711954,2.23810
1390042771954,2.22280
1390042831965,2.25383
1390042891965,2.23508
1390042951965,2.23267
1390043011965,2.24310
1390043071965,2.23514
1390043131965,2.13549
1390043191965,2.26466
1390043251965,2.25311
1390043311965,2.23655
1390043371965,2.22671
1390043431965,2.20957
1390043491965,2.18667
1390044031965,2.25807
1390044091965,2.22757
1390044151965,2.25519
1390044211965,2.26495
1390044271965,2.24109
1390044331965,2.26479
1390044391965,2.22630
1390044451965,2.27405
1390044511965,2.28543
1390044571965,2.24079
1390044631965,2.26974
1390044691965,2.26806
1390044751965,2.27460
1390044811965,2.27754
1390044871965,2.26252
1390044931965,2.24745
1390044991965,2.28272
1390045051965,2.25366
1390045111965,2.26090
1390045171965,2.26600
1390045231965,2.26454
1390045291965,2.25528
1390045351965,2.26740
1390045411965,2.24892
1390045471965,2.24568
1390045531965,2.25287
1390045591965,2.27669
1390045651965,2.27022
1390045711965,2.29187
1390045771965,2.27099
1390045831965,2.24093
1390045891965,2.21619
1390045951965,2.24095
1390046011965,2.24848
1390046071965,2.25788
1390046131965,2.27522
1390046191965,2.26326
1390046251965,2.24719
1390046311965,2.25226
1390046371965,2.27134
1390046431976,2.25411
1390046491976,2.24863
1390046551976,2.26701
1390046611976,2.26087
1390046671976,2.26398
1390046731976,2.27144
1390046791976,2.26887
1390046851976,2.27031
1390046911976,2.24093
1390046971976,2.25235
1390047031976,2.26655
1390047091976,2.25603
1390047151976,2.24573
1390047211976,2.24910
1390047271976,2.28840
1390047331976,2.22381
1390047391976,2.23400
1390047451976,2.22918
1390047511976,2.22170
1390047571976,2.22705
1390047631976,2.22767
1390047691976,2.24626
1390047751976,2.24550
1390047811976,2.25032
1390047871976,2.21336
1390047931976,2.22441
1390047991976,2.24469
1390048051976,2.22498
1390048111976,2.23823
1390048171976,2.23161
1390048231976,2.25613
1390048291976,2.24298
1390048351976,2.20495
1390048411976,2.23878
1390048471976,2.20990
1390048531976,2.24138
1390048591976,2.23224
1390048651976,2.23469
1390048711976,2.25603
1390048771976,2.23420
1390048831976,2.20758
1390048891976,2.19978
1390048951976,2.24273
1390049011976,2.19740
1390049071976,2.24809
1390049131976,2.24020
1390049191976,2.20078
1390049251976,2.22918
1390049311976,2.24895
1390049371976,2.23761
1390049431976,2.22342
1390049491976,2.25411
1390049551976,2.21532
1390049611976,2.23231
1390049671976,2.23517
1390049731976,2.21068
1390049791976,2.21685
1390049851976,2.23476
1390049911976,2.23186
1390049971976,2.22316
1390050031988,2.22284
1390050091988,2.22164
1390050151988,2.21168
1390050211988,2.25063
1390050271988,2.23028
1390050331988,2.23936
1390050391988,2.22756
1390050451988,2.24320
1390050511988,2.20260
1390050571988,2.23681
1390050631988,2.24370
1390050691988,2.23594
1390050751988,2.24476
1390050811988,2.22910
1390050871988,2.22894
1390050931988,2.23751
1390050991988,2.22996
1390051051988,2.22357
1390051111988,2.21787
1390051171988,2.24382
1390051231988,2.23434
1390051291988,2.25719
1390051351988,2.19880
1390051411988,2.23064
1390051471988,2.25040
1390051531988,2.23834
1390051591988,2.21879
1390051651988,2.23279
1390051711988,2.23251
1390051771988,2.23929
1390051831988,2.22314
1390051891988,2.24649
1390051951988,2.22199
1390052011988,2.24110
1390052071988,2.23647
1390052131988,2.26064
1390052191988,2.17971
1390052251988,2.23670
1390052311988,2.23410
1390052371988,2.22363
1390052431988,2.23766
1390052491988,2.24834
1390052551988,2.20511
1390052611988,2.24147
1390052671988,2.22635
1390052731988,2.24808
1390052791988,2.25645
1390052851988,2.21820
1390052911988,2.19098
1390052971988,2.21601
1390053031988,2.26833
1390053091988,2.44856
1390053151988,2.24856
1390053211988,2.21014
1390053271988,2.24550
1390053331988,2.24345
1390053391988,2.24176
1390053451988,2.21645
1390053511988,2.21908
1390053571988,2.23379
1390053631999,2.25604
1390053691999,2.25759
1390053751999,2.25730
1390053811999,2.25576
1390053871999,2.26201
1390053931999,2.24084
1390053991999,2.22676
1390054051999,2.25290
1390054111999,2.22836
1390054171999,2.22247
1390054231999,2.21570
1390054291999,2.26438
1390054351999,2.24794
1390054411999,2.22321
1390054471999,2.23496
1390054531999,2.27363
1390054591999,2.25080
1390054651999,2.23360
1390054711999,2.22893
1390054771999,2.25224
1390054831999,2.22325
1390054891999,2.26811
1390054951999,2.25267
1390055011999,2.24745
1390055071999,2.23135
1390055131999,2.27972
1390055191999,2.27353
1390055251999,2.26777
1390055311999,2.26042
1390055371999,2.25681
1390055431999,2.22427
1390055491999,2.23675
1390055551999,2.24764
1390055611999,2.24038
1390055671999,2.27215
1390055731999,2.22546
1390055791999,2.24348
1390055851999,2.22355
1390055911999,2.22955
1390055971999,2.23555
1390056031999,2.26103
1390056091999,2.24640
1390056151999,2.27019
1390056211999,2.23001
1390056271999,2.23347
1390056331999,2.22872
1390056391999,2.26525
1390056451999,2.25136
1390056511999,2.25728
1390056571999,2.21511
1390056631999,2.27504
1390056691999,2.24595
1390056751999,2.25967
1390056811999,2.26710
1390056871999,2.27002
1390056931999,2.25422
1390056991999,2.24579
1390057051999,2.23771
1390057111999,2.25523
1390057171999,2.24733
1390057232010,2.25696
1390057292010,2.22241
1390057352010,2.23410
1390057412010,2.24823
1390057472010,2.23908
1390057532010,2.24337
1390057592010,2.26127
1390057652010,2.25166
1390057712010,2.29539
1390057772010,2.28516
1390057832010,2.24968
1390057892010,2.24038
1390057952010,2.23610
1390058012010,2.24406
1390058072010,2.25274
1390058132010,2.23448
1390058192010,2.27616
1390058252010,2.22342
1390058312010,2.25568
1390058372010,2.24909
1390058432010,2.24726
1390058492010,2.21008
1390058552010,2.23495
1390058612010,2.24201
1390058672010,2.24372
1390058732010,2.23773
1390058792010,2.22673
1390058852010,2.25456
1390058912010,2.24335
1390058972010,2.24861
1390059032010,2.22232
1390059092010,2.22771
1390059152010,2.24328
1390059212010,2.22014
1390059272010,2.21417
1390059332010,2.23273
1390059392010,2.22756
1390059452010,2.23983
1390059512010,2.24518
1390059572010,2.24636
1390059632010,2.20983
1390059692010,2.21434
1390059752010,2.21689
1390059812010,2.21806
1390059872010,2.24627
1390059932010,2.23605
1390059992010,2.23624
1390060052010,2.20843
1390060112010,2.20752
1390060172010,2.25641
1390060232010,2.20905
1390060292010,2.23572
1390060352010,2.25102
1390060412010,2.23353
1390060472010,2.23637
1390060532010,2.23733
1390060592010,2.25789
1390060652010,2.22995
1390060712010,2.23461
1390060772010,2.25952
1390060832021,2.21810
1390060892021,2.22601
1390060952021,2.23793
1390061012021,2.26284
1390061072021,2.20328
1390061132021,2.24893
1390061192021,2.23758
1390061252021,2.23159
1390061312021,2.26251
1390061372021,2.22663
1390061432021,2.24629
1390061492021,2.23809
1390061552021,2.22839
1390061612021,2.22625
1390061672021,2.22165
1390061732021,2.22085
1390061792021,2.23438
1390061852021,2.22835
1390061912021,2.21181
1390061972021,2.23701
1390062032021,2.22455
1390062092021,2.21864
1390062152021,2.21003
1390062212021,2.23996
1390062272021,2.23744
1390062332021,2.23156
1390062392021,2.23106
1390062452021,2.22022
1390062512021,2.23079
1390062572021,2.24978
1390062632021,2.22398
1390062692021,2.22610
1390062752021,2.24661
1390062812021,2.22705
1390062872021,2.21720
1390062932021,2.23441
1390062992021,2.24319
1390063052021,2.20124
1390063112021,2.23812
1390063172021,2.21076
1390063232021,2.22228
1390063292021,2.23219
1390063352021,2.22991
1390063412021,2.21950
1390063472021,2.23567
1390063532021,2.22989
1390063592021,2.22984
1390063652021,2.23706
1390063712021,2.20466
1390063772021,2.20912
1390063832021,2.23476
1390063892021,2.23372
1390063952021,2.23281
1390064012021,2.24009
1390064072021,2.24133
1390064132021,2.23346
1390064192021,2.22293
1390064252021,2.22571
1390064312021,2.21579
1390064372021,2.26023
1390064432032,2.22893
1390064492032,2.24519
1390064552032,2.21502
1390064612032,2.25687
1390064672032,2.22083
1390064732032,2.20459
1390064792032,2.22061
1390064852032,2.24256
1390064912032,2.21651
1390064972032,2.22883
1390065032032,2.22573
1390065092032,2.20011
1390065152032,2.23093
1390065212032,2.21263
1390065272032,2.22969
1390065332032,2.25036
1390065392032,2.19841
1390065452032,2.22651
1390065512032,2.24742
1390065572032,2.21263
1390065632032,2.24213
1390065692032,2.25124
1390065752032,2.26127
1390065812032,2.23374
1390065872032,2.21881
1390065932032,2.26410
1390065992032,2.22801
1390066052032,2.23415
1390066112032,2.21197
1390066172032,2.23595
1390066232032,2.24050
1390066292032,2.25830
1390066352032,2.21877
1390066412032,2.24237
1390066472032,2.21679
1390066532032,2.23743
1390066592032,2.22559
1390066652032,2.24825
1390066712032,2.23879
1390066772032,2.26600
1390066832032,2.24867
1390066892032,2.23194
1390066952032,2.21695
1390067012032,2.23983
1390067072032,2.27076
1390067132032,2.24857
1390067192032,2.25901
1390067252032,2.26225
1390067312032,2.26320
1390067372032,2.26860
1390067432032,2.24827
1390067492032,2.25077
1390067552032,2.24958
1390067612032,2.28140
1390067672032,2.25302
1390067732032,2.24863
1390067792032,2.24524
1390067852032,2.23764
1390067912032,2.23801
1390067972032,2.25697
1390068032043,2.22192
1390068092043,2.23987
1390068152043,2.28171
1390068212043,2.24830
1390068272043,2.23713
1390068332043,2.24907
1390068392043,2.25385
1390068452043,2.24749
1390068512043,2.23871
1390068572043,2.24120
1390068632043,2.24774
1390068692043,2.23553
1390068752043,2.25193
1390068812043,2.25479
1390068872043,2.25199
1390068932043,2.21472
1390068992043,2.22600
1390069052043,2.23695
1390069112043,2.21272
1390069172043,2.24762
1390069232043,2.23795
1390069292043,2.24442
1390069352043,2.23488
1390069412043,2.24806
1390069472043,2.23090
1390069532043,2.24346
1390069592043,2.29677
1390069652043,2.23823
1390069712043,2.23815
1390069772043,2.24317
1390069832043,2.21660
1390069892043,2.22939
1390069952043,2.22702
1390070012043,2.32839
1390070072043,2.23650
1390070132043,2.25645
1390070192043,2.23174
1390070252043,2.27083
1390070312043,2.23604
1390070372043,2.24698
1390070432043,2.27118
1390070492043,2.25951
1390070552043,2.22458
1390070612043,2.23566
1390070672043,2.24754
1390070732043,2.27755
1390070792043,2.24280
1390070852043,2.21191
1390070912043,2.23558
1390070972043,2.23712
1390071032043,2.25635
1390071092043,2.24760
1390071152043,2.24683
1390071212043,2.24932
1390071272043,2.25031
1390071332043,2.23108
1390071392043,2.23903
1390071452043,2.25267
1390071512043,2.24023
1390071572043,2.24258
1390071632054,2.22490
1390071692054,2.23258
1390071752054,2.25031
1390071812054,2.23776
1390071872054,2.26481
1390071932054,2.25109
1390071992054,2.24213
1390072052054,2.26410
1390072112054,2.23681
1390072172054,2.26125
1390072232054,2.24027
1390072292054,2.25173
1390072352054,2.26757
1390072412054,2.24354
1390072472054,2.29184
1390072532054,2.25055
1390072592054,2.26992
1390072652054,2.24356
1390072712054,2.24497
1390072772054,2.25167
1390072832054,2.24653
1390072892054,2.24153
1390072952054,2.27072
1390073012054,2.24991
1390073072054,2.24737
1390073132054,2.23814
1390073192054,2.25710
1390073252054,2.24182
1390073312054,2.24916
1390073372054,2.25831
1390073432054,2.24453
1390073492054,2.25506
1390073552054,2.24997
1390073612054,2.22990
1390073672054,2.29121
1390073732054,2.29381
1390073792054,2.27139
1390073852054,2.27447
1390073912054,2.29415
1390073972054,2.25203
1390074032054,2.26179
1390074092054,2.28824
1390074152054,2.26928
1390074212054,2.24463
1390074272054,2.30731
1390074332054,2.24924
1390074392054,2.28802
1390074452054,2.27037
1390074512054,2.28371
1390074572054,2.26644
1390074632054,2.29027
1390074692054,2.26346
1390074752054,2.28253
1390074812054,2.26209
1390074872054,2.31227
1390074932054,2.27917
1390074992054,2.29859
1390075052054,2.28069
1390075112054,2.27517
1390075172054,2.28117
1390075232064,2.28017
1390075292064,2.27663
1390075352064,2.28716
1390075412064,2.33869
1390075472064,2.25860
1390075532064,2.29453
1390075592064,2.27126
1390075652064,2.26650
1390075712064,2.25186
1390075772064,2.29534
1390075832064,2.26370
1390075892064,2.27557
1390075952064,2.27961
1390076012064,2.25515
1390076072064,2.30010
1390076132064,2.28499
1390076192064,2.30834
1390076252064,2.28937
1390076312064,2.29115
1390076372064,2.29527
1390076432064,2.29093
1390076492064,2.34943
1390076552064,2.31430
1390076612064,2.28191
1390076672064,2.29670
1390076732064,2.30189
1390076792064,2.32985
1390076852064,2.32218
1390076912064,2.28167
1390076972064,2.32125
1390077032064,2.29606
1390077092064,2.29347
1390077152064,2.28679
1390077212064,2.33076
1390077272064,2.30479
1390077332064,2.30986
1390077392064,2.29200
1390077452064,2.31222
1390077512064,2.27780
1390077572064,2.31954
1390077632064,2.31976
1390077692064,2.32924
1390077752064,2.31275
1390077812064,2.31686
1390077872064,2.29810
1390077932064,2.32577
1390077992064,2.31584
1390078052064,2.32932
1390078112064,2.29638
1390078172064,2.30198
1390078232064,2.31543
1390078292064,2.31352
1390078352064,2.31398
1390078412064,2.31153
1390078472064,2.33337
1390078532064,2.31688
1390078592064,2.28426
1390078652064,2.33748
1390078712064,2.26396
1390078772064,2.30612
1390078832075,2.31000
1390078892075,2.31857
1390078952075,2.30793
1390079012075,2.33588
1390079072075,2.32180
1390079132075,2.29464
1390079192075,2.32233
1390079252075,2.30079
1390079312075,2.30350
1390079372075,2.32317
1390079432075,2.31129
1390079492075,2.31321
1390079552075,2.31576
1390079612075,2.30262
1390079672075,2.29869
1390079732075,2.30371
1390079792075,2.29539
1390079852075,2.32249